Location: Dodgeville
(42.9600°N, 90.1300°W)
Time: 17:14:16
(UTC-05:00)

Uosat F - Visible Passes

Search period start: 16 October 2017 00:00
Search period end: 26 October 2017 00:00
Orbit: 751 x 760 km, 98.8° (Epoch: 16 October)

Date Brightness Start Highest point End Pass type
(mag) Time Alt. Az. Time Alt. Az. Time Alt. Az.
16 Oct 12.0 19:45:35 10° S 19:50:26 49° W 19:55:20 10° NNW visible
17 Oct 11.0 19:05:55 10° SSE 19:10:54 72° ENE 19:15:57 10° N visible
17 Oct 14.1 20:47:38 10° WSW 20:50:11 14° W 20:52:44 10° WNW visible
18 Oct 12.8 20:05:50 10° SSW 20:10:18 32° W 20:14:50 10° NNW visible
19 Oct 11.2 19:25:39 10° S 19:30:40 77° WSW 19:35:45 10° NNW visible
20 Oct 11.3 18:46:28 10° SE 18:51:16 46° ENE 18:56:05 10° N visible
20 Oct 13.5 20:26:25 10° SW 20:30:14 22° W 20:34:05 10° NW visible
21 Oct 12.0 19:45:37 10° S 19:50:29 50° W 19:55:24 10° NNW visible
22 Oct 11.0 19:05:58 10° SSE 19:10:58 71° ENE 19:16:01 10° N visible
22 Oct 14.0 20:47:37 10° WSW 20:50:14 14° W 20:52:51 10° WNW visible
23 Oct 11.8 18:27:17 10° SE 18:31:40 31° ENE 18:36:05 10° N visible
23 Oct 12.8 20:05:51 10° SSW 20:10:21 33° W 20:14:54 10° NNW visible
24 Oct 11.2 19:25:42 10° S 19:30:43 78° WSW 19:35:49 10° NNW visible
25 Oct 11.3 18:46:32 10° SE 18:51:19 46° ENE 18:56:09 10° N visible
25 Oct 13.5 20:26:26 10° SW 20:30:17 22° W 20:34:10 10° NW visible
